Regional Weather Roundup
Issued by NWS Newport/Morehead, NC

Current Version | Previous Version | Graphics & Text | Print | Product List | Glossary On
Versions: 1 2 3 4 5 6 7 8 9 10 11 12 13 14 15 16 17 18 19 20 21 22 23 24 25 26 27 28 29 30 31 32 33 34 35 36 37 38 39 40 41 42 43 44 45 46 47 48 49 50
000 ASUS42 KMHX 302022 RWRMHX WEATHER ROUNDUP FOR EASTERN NORTH CAROLINA NATIONAL WEATHER SERVICE NEWPORT/MOREHEAD CITY NC 300 PM EST FRI JAN 30 2015 NOTE: "FAIR" INDICATES FEW OR NO CLOUDS BELOW 12,000 FEET WITH NO SIGNIFICANT WEATHER AND/OR OBSTRUCTIONS TO VISIBILITY NCZ015>017-031-032-045>047-102-103-302100- NORTH COAST CITY SKY/WX TMP DP RH WIND PRES REMARKS EDENTON CLOUDY 45 31 58 NW7 30.03R ELIZABETH CITY CLOUDY 43 27 53 NW14 30.02R KITTY HAWK CLOUDY 43 26 51 NW9 29.99R MANTEO CLOUDY 43 27 52 NW10G16 30.00S $$ NCZ045>047-081-094-103-104-302100- CENTRAL COAST CITY SKY/WX TMP DP RH WIND PRES REMARKS FRISCO CLOUDY 43 28 55 N8G18 30.01R SWANQUARTER NOT AVBL $$ NCZ095-097-098-100-101-302100- SOUTHERN COAST CITY SKY/WX TMP DP RH WIND PRES REMARKS BEAUFORT CLOUDY 47 28 47 NW20 30.04R CEDAR ISLAND NOT AVBL JACKSONVILLE MOSUNNY 48 22 35 NW21G29 30.05R PINEY ISLAND N/A N/A N/A N/A MISG 30.02R WILMINGTON MOSUNNY 53 26 35 NW21G29 30.06R $$ NCZ011>013-027>030-043-044-078>080-089-090>093-098-302100- COASTAL PLAIN CITY SKY/WX TMP DP RH WIND PRES REMARKS AHOSKIE MOSUNNY 45 18 33 NW6 30.04S CLINTON SUNNY 50 23 34 NW17G25 30.10R ELIZABETHTOWN SUNNY 50 19 29 NW13G20 30.10R GOLDSBORO PTSUNNY 46 23 39 NW15G22 30.05F GREENVILLE MOSUNNY 46 19 34 NW16G28 30.07R HAVELOCK CLOUDY 49 22 34 NW18G26 30.05R KENANSVILLE PTSUNNY 49 19 30 NW13G22 30.09R KINSTON MOSUNNY 50 21 32 NW16G22 30.07S NEW BERN CLOUDY 49 21 33 NW16G29 30.05S RICHLANDS PTSUNNY 48 21 34 NW9G18 30.07R ROCKY MOUNT MOSUNNY 48 15 26 NW20G31 30.07R WASHINGTON PTSUNNY 46 21 37 NW8G17 30.05R WHITEVILLE SUNNY 51 23 33 W12G20 30.09S $$ AMZ130-135-150-152-154-156-158-170-250-252-270-ANZ085-086-088-633-658-670-302100- MARINE OBSERVATIONS STATION/POSITION TIME TEMP WIND PRES WAVE SWELL AIR SEA DIR/SP/G HT/PER HT/PER (UTC) (F) (DEG/KT/KT) (MB) (FT/S) (FT/S) CHESAPEAKE LIGHT 2000 39 330/ 31/ 33 1016.0 64 E VA BEACH 2000 43 49 330/ 27/ 33 1013.3 8/ 6 2/10 DUCK 2000 42 44 340/ 15/ 18 1014.9 2 E DUCK 2000 43 N/A 4/ 5 10 NE DUCK 2000 45 N/A 5/ 5 OREGON INLET 2000 42 42 310/ 13/ 15 1015.8 13E OREGON INLT 2000 43 N/A 6/ 6 2/11 HATTERAS CG 2000 43 46 330/ 19/ 22 1016.7 DIAMOND BUOY 2000 46 68 350/ 27/ 31 1015.0 7/ 6 2/11 17 S OCRACOKE NOT AVBL CAPE LOOKOUT 2000 47 320/ 19/ 23 1016.7 BEAUFORT LAB 2000 47 47 320/ 11/ 15 1016.1 27 SE WRIGHTSVLE NOT AVBL 5 SE WRIGHTSVLE 2000 50 52 320/ 16/ 19 1017.6 225 S CAPE HAT 1942 65 72 300/ 29/ 37 1012.0 12/ 8 41 SE CHARLESTON 2000 55 68 300/ 19/ 23 1018.5 5/ 5 2/11 $$

USA.gov is the U.S. government's official web portal to all federal, state and local government web resources and services.